QPF
0.00 0.00 0.00 0.00 0.00 0.00 0.00 0.00 0.00 0.00 0.00 0.00 0.00 0.00 0.00 0.00 0.00 0.00 0.00 0.00 0.00 0.00 0.00 0.00 0.00 0.00 0.00 0.01 0.01 0.01 0.01 0.01 0.01 0.01 0.02 0.01 0.01 0.01 0.01 0.01 0.01 0.01 0.01
0.00 0.00 0.00 0.00 0.00 0.00 0.00 0.00 0.00 0.00 0.00 0.00 0.00 0.00 0.00 0.00 0.00 0.00 0.00 0.00 0.00 0.00 0.00 0.00 0.00 0.00 0.00 0.00 0.01 0.01 0.01 0.01 0.01 0.01 0.01 0.01 0.01 0.01 0.01 0.01 0.01 0.01 0.01
0.00 0.00 0.00 0.00 0.00 0.00 0.00 0.00 0.00 0.00 0.00 0.00 0.00 0.00 0.00 0.00 0.00 0.00 0.00 0.00 0.00 0.00 0.00 0.00 0.00 0.00 0.00 0.00 0.00 0.00 0.01 0.01 0.01 0.01 0.01 0.01 0.01 0.01 0.01 0.01 0.01 0.01 0.01
0.00 0.00 0.00 0.00 0.00 0.00 0.00 0.00 0.00 0.00 0.00 0.00 0.00 0.00 0.00 0.00 0.00 0.00 0.00 0.00 0.00 0.00 0.00 0.00 0.00 0.00 0.00 0.00 0.00 0.00 0.00 0.00 0.01 0.01 0.01 0.01 0.01 0.02 0.02 0.02 0.02 0.02 0.02
0.00 0.00 0.00 0.00 0.00 0.00 0.00 0.00 0.00 0.00 0.00 0.00 0.00 0.00 0.00 0.00 0.00 0.00 0.00 0.00 0.00 0.00 0.00 0.00 0.00 0.00 0.00 0.00 0.00 0.00 0.00 0.00 0.00 0.01 0.01 0.01 0.01 0.02 0.02 0.02 0.02 0.02 0.02
0.00 0.00 0.00 0.00 0.00 0.00 0.00 0.00 0.00 0.00 0.00 0.00 0.00 0.00 0.00 0.00 0.00 0.00 0.00 0.00 0.00 0.00 0.00 0.00 0.00 0.00 0.00 0.00 0.00 0.00 0.00 0.00 0.00 0.01 0.01 0.01 0.02 0.02 0.02 0.02 0.03 0.03 0.03
0.00 0.00 0.00 0.00 0.00 0.00 0.00 0.00 0.00 0.00 0.00 0.00 0.00 0.00 0.00 0.00 0.00 0.00 0.00 0.00 0.00 0.00 0.00 0.00 0.00 0.00 0.00 0.00 0.00 0.00 0.00 0.00 0.00 0.01 0.01 0.02 0.02 0.02 0.03 0.03 0.03 0.03 0.04
0.00 0.00 0.00 0.00 0.00 0.00 0.00 0.00 0.00 0.00 0.00 0.00 0.00 0.00 0.00 0.00 0.00 0.00 0.00 0.00 0.00 0.00 0.00 0.00 0.00 0.00 0.00 0.00 0.00 0.00 0.00 0.00 0.00 0.00 0.01 0.02 0.02 0.03 0.03 0.04 0.04 0.04 0.05
0.00 0.00 0.00 0.00 0.00 0.00 0.00 0.00 0.00 0.00 0.00 0.00 0.00 0.00 0.00 0.00 0.00 0.00 0.00 0.00 0.00 0.00 0.00 0.00 0.00 0.00 0.00 0.00 0.00 0.00 0.00 0.00 0.00 0.01 0.01 0.02 0.03 0.04 0.04 0.05 0.05 0.06 0.07
0.00 0.00 0.00 0.00 0.00 0.00 0.00 0.00 0.00 0.00 0.00 0.00 0.00 0.00 0.00 0.00 0.00 0.00 0.00 0.00 0.00 0.00 0.00 0.00 0.00 0.00 0.00 0.00 0.00 0.00 0.00 0.00 0.00 0.01 0.02 0.03 0.04 0.05 0.06 0.06 0.07 0.07 0.08
0.00 0.00 0.00 0.00 0.00 0.00 0.00 0.00 0.00 0.00 0.00 0.00 0.00 0.00 0.00 0.00 0.00 0.00 0.00 0.00 0.00 0.00 0.00 0.00 0.00 0.00 0.00 0.00 0.00 0.00 0.00 0.00 0.00 0.01 0.01 0.02 0.03 0.04 0.05 0.06 0.06 0.06 0.07
0.00 0.00 0.00 0.00 0.00 0.00 0.00 0.00 0.00 0.00 0.00 0.00 0.00 0.00 0.00 0.00 0.00 0.00 0.00 0.00 0.00 0.00 0.00 0.00 0.00 0.00 0.00 0.00 0.00 0.00 0.00 0.00 0.00 0.00 0.01 0.02 0.02 0.03 0.04 0.04 0.04 0.05 0.06
0.00 0.00 0.00 0.00 0.00 0.00 0.00 0.00 0.00 0.00 0.00 0.00 0.00 0.00 0.00 0.00 0.00 0.00 0.00 0.00 0.00 0.00 0.00 0.00 0.00 0.00 0.00 0.00 0.00 0.00 0.00 0.00 0.00 0.00 0.01 0.01 0.02 0.02 0.03 0.03 0.03 0.04 0.05
0.00 0.00 0.00 0.00 0.00 0.00 0.00 0.00 0.00 0.00 0.00 0.00 0.00 0.00 0.00 0.00 0.00 0.00 0.00 0.00 0.00 0.00 0.00 0.00 0.00 0.00 0.00 0.00 0.00 0.00 0.00 0.00 0.00 0.00 0.00 0.01 0.01 0.02 0.02 0.03 0.03 0.04 0.04
0.00 0.00 0.00 0.00 0.00 0.00 0.00 0.00 0.00 0.00 0.00 0.00 0.00 0.00 0.00 0.00 0.00 0.00 0.00 0.00 0.00 0.00 0.00 0.00 0.00 0.00 0.00 0.00 0.00 0.00 0.00 0.00 0.00 0.00 0.00 0.01 0.02 0.02 0.03 0.03 0.03 0.04 0.04
0.00 0.00 0.00 0.00 0.00 0.00 0.00 0.00 0.00 0.00 0.00 0.00 0.00 0.00 0.00 0.00 0.00 0.00 0.00 0.00 0.00 0.00 0.00 0.00 0.00 0.00 0.00 0.00 0.00 0.00 0.00 0.00 0.00 0.00 0.00 0.01 0.01 0.02 0.03 0.03 0.03 0.04 0.04
0.00 0.00 0.00 0.00 0.00 0.00 0.00 0.00 0.00 0.00 0.00 0.00 0.00 0.00 0.00 0.00 0.00 0.00 0.00 0.00 0.00 0.00 0.00 0.00 0.00 0.00 0.00 0.00 0.00 0.00 0.00 0.00 0.00 0.00 0.00 0.01 0.01 0.02 0.02 0.03 0.03 0.04 0.04
0.00 0.00 0.00 0.00 0.00 0.00 0.00 0.00 0.00 0.00 0.00 0.00 0.00 0.00 0.00 0.00 0.00 0.00 0.00 0.00 0.00 0.00 0.00 0.00 0.00 0.00 0.00 0.00 0.00 0.00 0.00 0.00 0.00 0.00 0.00 0.00 0.01 0.02 0.02 0.03 0.04 0.04 0.04
0.00 0.00 0.00 0.00 0.00 0.00 0.00 0.00 0.00 0.00 0.00 0.00 0.00 0.00 0.00 0.00 0.01 0.01 0.01 0.01 0.00 0.00 0.00 0.00 0.00 0.00 0.00 0.00 0.00 0.00 0.00 0.00 0.00 0.00 0.00 0.00 0.01 0.01 0.02 0.02 0.03 0.04 0.04
0.00 0.00 0.00 0.00 0.00 0.00 0.00 0.00 0.00 0.00 0.00 0.00 0.00 0.00 0.01 0.01 0.01 0.01 0.01 0.01 0.00 0.00 0.00 0.01 0.00 0.00 0.00 0.00 0.00 0.00 0.00 0.00 0.00 0.00 0.00 0.00 0.00 0.01 0.01 0.02 0.02 0.02 0.03
0.00 0.00 0.00 0.00 0.00 0.00 0.00 0.00 0.00 0.00 0.00 0.00 0.00 0.00 0.01 0.01 0.01 0.01 0.01 0.01 0.01 0.01 0.02 0.02 0.01 0.01 0.01 0.00 0.01 0.01 0.01 0.00 0.00 0.00 0.00 0.00 0.00 0.00 0.00 0.00 0.00 0.01 0.01
0.00 0.00 0.00 0.00 0.00 0.00 0.00 0.00 0.00 0.00 0.00 0.01 0.01 0.01 0.01 0.01 0.01 0.02 0.02 0.02 0.02 0.03 0.03 0.03 0.02 0.01 0.01 0.00 0.01 0.01 0.01 0.01 0.01 0.00 0.00 0.00 0.00 0.00 0.00 0.00 0.00 0.01 0.02
0.00 0.00 0.00 0.00 0.00 0.00 0.00 0.00 0.00 0.01 0.01 0.01 0.01 0.01 0.01 0.01 0.01 0.01 0.02 0.02 0.02 0.02 0.02 0.02 0.03 0.01 0.01 0.00 0.01 0.01 0.01 0.01 0.01 0.00 0.01 0.01 0.00 0.00 0.00 0.00 0.00 0.01 0.02
0.00 0.00 0.00 0.00 0.00 0.00 0.00 0.00 0.01 0.01 0.01 0.01 0.01 0.01 0.01 0.01 0.01 0.01 0.01 0.01 0.01 0.01 0.01 0.01 0.01 0.01 0.01 0.01 0.02 0.04 0.05 0.04 0.01 0.00 0.01 0.01 0.01 0.00 0.00 0.00 0.00 0.01 0.02
0.00 0.00 0.00 0.00 0.00 0.00 0.00 0.00 0.01 0.02 0.02 0.01 0.01 0.01 0.01 0.01 0.00 0.01 0.02 0.01 0.01 0.00 0.00 0.01 0.01 0.01 0.02 0.02 0.03 0.05 0.05 0.03 0.01 0.00 0.00 0.01 0.01 0.01 0.00 0.00 0.00 0.01 0.02
0.00 0.00 0.00 0.00 0.00 0.00 0.00 0.00 0.01 0.02 0.02 0.02 0.01 0.01 0.01 0.01 0.01 0.01 0.02 0.02 0.01 0.00 0.00 0.00 0.01 0.01 0.01 0.00 0.01 0.01 0.02 0.02 0.02 0.01 0.00 0.01 0.02 0.02 0.02 0.01 0.01 0.01 0.02
MSLP
1024.33 1024.73 1025.05 1025.31 1025.52 1025.69 1025.84 1025.99 1026.12 1026.24 1026.34 1026.41 1026.44 1026.44 1026.43 1026.40 1026.39 1026.40 1026.45 1026.52 1026.60 1026.69 1026.74 1026.74 1026.68 1026.54 1026.33 1026.07 1025.77 1025.45 1025.14 1024.84 1024.57 1024.33 1024.11 1023.91 1023.71 1023.50 1023.27 1023.00 1022.71 1022.38 1022.03
1023.66 1024.08 1024.43 1024.71 1024.94 1025.13 1025.31 1025.49 1025.66 1025.83 1025.98 1026.10 1026.18 1026.22 1026.22 1026.20 1026.18 1026.18 1026.21 1026.27 1026.37 1026.47 1026.55 1026.59 1026.56 1026.45 1026.26 1025.99 1025.67 1025.32 1024.97 1024.65 1024.36 1024.12 1023.92 1023.74 1023.56 1023.37 1023.15 1022.89 1022.59 1022.25 1021.88
1022.85 1023.31 1023.70 1024.02 1024.29 1024.53 1024.76 1024.98 1025.20 1025.43 1025.64 1025.81 1025.94 1026.01 1026.03 1026.01 1025.97 1025.93 1025.93 1025.96 1026.03 1026.12 1026.22 1026.29 1026.29 1026.21 1026.05 1025.80 1025.48 1025.13 1024.77 1024.44 1024.15 1023.90 1023.71 1023.53 1023.37 1023.18 1022.97 1022.70 1022.39 1022.04 1021.66
1021.96 1022.45 1022.88 1023.27 1023.60 1023.90 1024.18 1024.46 1024.74 1025.03 1025.29 1025.52 1025.69 1025.79 1025.82 1025.80 1025.73 1025.65 1025.59 1025.58 1025.61 1025.68 1025.78 1025.85 1025.89 1025.85 1025.72 1025.51 1025.23 1024.90 1024.56 1024.23 1023.94 1023.69 1023.49 1023.31 1023.13 1022.93 1022.70 1022.42 1022.10 1021.74 1021.35
1021.02 1021.54 1022.02 1022.47 1022.87 1023.23 1023.57 1023.91 1024.25 1024.58 1024.89 1025.16 1025.37 1025.50 1025.54 1025.51 1025.42 1025.31 1025.21 1025.14 1025.13 1025.17 1025.25 1025.33 1025.39 1025.39 1025.31 1025.15 1024.92 1024.63 1024.32 1024.01 1023.72 1023.47 1023.25 1023.04 1022.83 1022.60 1022.34 1022.04 1021.69 1021.32 1020.94
1020.07 1020.60 1021.12 1021.62 1022.08 1022.50 1022.90 1023.28 1023.66 1024.02 1024.37 1024.68 1024.92 1025.08 1025.14 1025.12 1025.02 1024.89 1024.76 1024.66 1024.61 1024.62 1024.68 1024.76 1024.83 1024.86 1024.82 1024.72 1024.54 1024.30 1024.03 1023.74 1023.46 1023.20 1022.95 1022.70 1022.45 1022.17 1021.87 1021.53 1021.17 1020.80 1020.41
1019.11 1019.64 1020.19 1020.72 1021.22 1021.68 1022.12 1022.53 1022.93 1023.32 1023.68 1024.01 1024.28 1024.47 1024.57 1024.57 1024.50 1024.38 1024.24 1024.13 1024.05 1024.04 1024.07 1024.14 1024.21 1024.26 1024.26 1024.20 1024.07 1023.88 1023.64 1023.38 1023.11 1022.83 1022.54 1022.25 1021.95 1021.63 1021.28 1020.92 1020.54 1020.16 1019.79
1018.15 1018.67 1019.21 1019.76 1020.28 1020.77 1021.22 1021.64 1022.05 1022.44 1022.82 1023.16 1023.46 1023.68 1023.82 1023.88 1023.85 1023.76 1023.65 1023.54 1023.46 1023.43 1023.44 1023.49 1023.55 1023.60 1023.62 1023.58 1023.49 1023.33 1023.13 1022.88 1022.61 1022.32 1022.00 1021.68 1021.33 1020.96 1020.59 1020.20 1019.82 1019.45 1019.09
1017.19 1017.67 1018.20 1018.74 1019.27 1019.76 1020.21 1020.63 1021.03 1021.41 1021.78 1022.13 1022.45 1022.71 1022.91 1023.02 1023.06 1023.03 1022.96 1022.88 1022.82 1022.77 1022.77 1022.79 1022.84 1022.87 1022.88 1022.85 1022.77 1022.64 1022.45 1022.22 1021.95 1021.64 1021.31 1020.96 1020.58 1020.19 1019.80 1019.41 1019.03 1018.68 1018.34
1016.21 1016.65 1017.15 1017.68 1018.19 1018.67 1019.12 1019.52 1019.90 1020.27 1020.62 1020.98 1021.31 1021.61 1021.86 1022.04 1022.16 1022.20 1022.19 1022.15 1022.11 1022.07 1022.04 1022.04 1022.05 1022.06 1022.05 1022.01 1021.93 1021.80 1021.62 1021.39 1021.12 1020.82 1020.48 1020.11 1019.72 1019.33 1018.94 1018.56 1018.20 1017.87 1017.56
1015.21 1015.61 1016.08 1016.58 1017.08 1017.55 1017.98 1018.37 1018.73 1019.07 1019.41 1019.76 1020.11 1020.44 1020.73 1020.98 1021.16 1021.28 1021.33 1021.34 1021.32 1021.29 1021.26 1021.23 1021.21 1021.18 1021.15 1021.08 1020.99 1020.85 1020.67 1020.44 1020.18 1019.87 1019.53 1019.17 1018.79 1018.41 1018.04 1017.68 1017.35 1017.04 1016.75
1014.18 1014.55 1015.00 1015.48 1015.96 1016.42 1016.84 1017.21 1017.55 1017.87 1018.20 1018.54 1018.89 1019.24 1019.57 1019.87 1020.11 1020.29 1020.40 1020.46 1020.48 1020.46 1020.43 1020.38 1020.33 1020.27 1020.20 1020.11 1020.00 1019.84 1019.65 1019.42 1019.16 1018.85 1018.52 1018.17 1017.82 1017.46 1017.11 1016.79 1016.48 1016.19 1015.91
1013.15 1013.49 1013.92 1014.39 1014.86 1015.31 1015.71 1016.07 1016.40 1016.71 1017.02 1017.34 1017.69 1018.05 1018.40 1018.74 1019.03 1019.26 1019.43 1019.54 1019.59 1019.59 1019.56 1019.51 1019.44 1019.36 1019.27 1019.15 1019.01 1018.84 1018.63 1018.39 1018.12 1017.81 1017.49 1017.16 1016.82 1016.48 1016.16 1015.86 1015.57 1015.29 1015.01
1012.12 1012.45 1012.86 1013.31 1013.77 1014.20 1014.60 1014.95 1015.27 1015.57 1015.87 1016.19 1016.53 1016.90 1017.27 1017.62 1017.95 1018.23 1018.44 1018.59 1018.68 1018.71 1018.70 1018.66 1018.59 1018.50 1018.38 1018.24 1018.08 1017.88 1017.65 1017.38 1017.09 1016.78 1016.46 1016.13 1015.80 1015.48 1015.18 1014.89 1014.61 1014.33 1014.03
1011.12 1011.43 1011.82 1012.25 1012.69 1013.11 1013.49 1013.84 1014.15 1014.44 1014.74 1015.06 1015.41 1015.78 1016.16 1016.54 1016.90 1017.21 1017.46 1017.65 1017.78 1017.85 1017.87 1017.84 1017.78 1017.69 1017.57 1017.41 1017.22 1016.99 1016.73 1016.43 1016.11 1015.77 1015.43 1015.09 1014.76 1014.45 1014.15 1013.86 1013.57 1013.27 1012.95
1010.15 1010.44 1010.80 1011.19 1011.60 1012.00 1012.36 1012.70 1013.00 1013.30 1013.61 1013.94 1014.30 1014.69 1015.09 1015.50 1015.88 1016.23 1016.52 1016.74 1016.91 1017.02 1017.07 1017.08 1017.04 1016.95 1016.82 1016.65 1016.43 1016.17 1015.86 1015.52 1015.16 1014.78 1014.40 1014.04 1013.69 1013.36 1013.05 1012.75 1012.44 1012.11 1011.75
1009.24 1009.49 1009.80 1010.14 1010.50 1010.86 1011.19 1011.51 1011.82 1012.13 1012.46 1012.81 1013.20 1013.62 1014.06 1014.50 1014.91 1015.29 1015.61 1015.88 1016.08 1016.22 1016.30 1016.34 1016.32 1016.24 1016.11 1015.93 1015.68 1015.38 1015.03 1014.64 1014.22 1013.79 1013.36 1012.96 1012.58 1012.22 1011.88 1011.55 1011.21 1010.85 1010.46
1008.37 1008.57 1008.82 1009.09 1009.39 1009.69 1009.98 1010.28 1010.59 1010.91 1011.27 1011.67 1012.10 1012.57 1013.05 1013.52 1013.97 1014.38 1014.73 1015.02 1015.25 1015.42 1015.53 1015.58 1015.57 1015.51 1015.38 1015.18 1014.91 1014.57 1014.18 1013.73 1013.26 1012.78 1012.30 1011.85 1011.43 1011.04 1010.67 1010.30 1009.93 1009.53 1009.10
1007.57 1007.69 1007.86 1008.06 1008.27 1008.51 1008.75 1009.02 1009.32 1009.67 1010.06 1010.51 1010.99 1011.51 1012.04 1012.56 1013.04 1013.48 1013.84 1014.15 1014.39 1014.57 1014.69 1014.75 1014.76 1014.69 1014.57 1014.36 1014.08 1013.72 1013.29 1012.80 1012.28 1011.76 1011.24 1010.74 1010.28 1009.84 1009.44 1009.03 1008.62 1008.19 1007.72
1006.80 1006.85 1006.94 1007.05 1007.18 1007.34 1007.53 1007.77 1008.06 1008.42 1008.85 1009.35 1009.89 1010.46 1011.03 1011.59 1012.09 1012.54 1012.91 1013.21 1013.44 1013.62 1013.73 1013.80 1013.81 1013.76 1013.63 1013.43 1013.15 1012.78 1012.34 1011.83 1011.29 1010.73 1010.18 1009.65 1009.15 1008.68 1008.24 1007.80 1007.35 1006.87 1006.36
1006.08 1006.05 1006.05 1006.08 1006.12 1006.21 1006.35 1006.56 1006.84 1007.21 1007.67 1008.20 1008.79 1009.40 1010.00 1010.58 1011.09 1011.53 1011.89 1012.17 1012.38 1012.54 1012.64 1012.70 1012.72 1012.68 1012.57 1012.39 1012.13 1011.78 1011.35 1010.85 1010.30 1009.74 1009.17 1008.62 1008.09 1007.59 1007.11 1006.63 1006.14 1005.62 1005.06
1005.38 1005.28 1005.21 1005.16 1005.14 1005.16 1005.25 1005.43 1005.69 1006.07 1006.54 1007.09 1007.70 1008.32 1008.94 1009.51 1010.01 1010.43 1010.76 1011.00 1011.19 1011.32 1011.41 1011.47 1011.49 1011.48 1011.40 1011.26 1011.04 1010.73 1010.34 1009.88 1009.35 1008.80 1008.23 1007.67 1007.12 1006.60 1006.08 1005.55 1005.01 1004.44 1003.83
1004.69 1004.55 1004.42 1004.31 1004.23 1004.20 1004.25 1004.39 1004.63 1004.99 1005.46 1006.01 1006.61 1007.23 1007.83 1008.38 1008.85 1009.22 1009.51 1009.73 1009.88 1009.99 1010.07 1010.14 1010.19 1010.21 1010.19 1010.10 1009.94 1009.70 1009.36 1008.95 1008.46 1007.93 1007.38 1006.81 1006.25 1005.69 1005.13 1004.56 1003.96 1003.33 1002.67
1004.00 1003.83 1003.66 1003.52 1003.40 1003.33 1003.34 1003.45 1003.66 1003.99 1004.43 1004.95 1005.52 1006.11 1006.68 1007.18 1007.61 1007.94 1008.20 1008.37 1008.51 1008.61 1008.70 1008.79 1008.88 1008.95 1008.99 1008.98 1008.89 1008.72 1008.44 1008.08 1007.64 1007.14 1006.60 1006.03 1005.45 1004.86 1004.25 1003.63 1002.97 1002.28 1001.54
1003.33 1003.13 1002.95 1002.78 1002.64 1002.54 1002.52 1002.58 1002.76 1003.05 1003.44 1003.92 1004.44 1004.97 1005.49 1005.95 1006.33 1006.63 1006.85 1007.02 1007.15 1007.26 1007.38 1007.51 1007.65 1007.78 1007.89 1007.95 1007.93 1007.82 1007.60 1007.29 1006.88 1006.40 1005.86 1005.28 1004.67 1004.04 1003.40 1002.72 1002.00 1001.24 1000.44
1002.68 1002.47 1002.28 1002.09 1001.93 1001.81 1001.75 1001.78 1001.91 1002.15 1002.48 1002.90 1003.36 1003.84 1004.29 1004.71 1005.05 1005.34 1005.55 1005.73 1005.88 1006.03 1006.19 1006.37 1006.57 1006.76 1006.93 1007.05 1007.08 1007.02 1006.84 1006.55 1006.15 1005.67 1005.12 1004.52 1003.88 1003.21 1002.51 1001.78 1001.01 1000.20 999.34
Thickness
5621 5617 5613 5610 5606 5602 5599 5596 5593 5591 5588 5586 5583 5580 5578 5575 5572 5570 5567 5564 5562 5560 5559 5558 5558 5558 5558 5559 5560 5560 5561 5563 5564 5566 5568 5571 5573 5576 5580 5584 5588 5593 5598
5620 5616 5611 5608 5604 5600 5596 5592 5589 5586 5583 5580 5577 5574 5571 5568 5565 5562 5559 5556 5553 5550 5548 5547 5546 5546 5546 5547 5547 5548 5549 5550 5551 5553 5555 5557 5560 5563 5567 5570 5575 5579 5585
5618 5614 5609 5605 5600 5596 5591 5587 5583 5580 5577 5573 5570 5567 5564 5560 5557 5553 5550 5547 5543 5540 5538 5536 5535 5534 5534 5534 5534 5535 5535 5536 5537 5539 5541 5543 5546 5549 5552 5556 5560 5565 5570
5615 5610 5606 5601 5596 5591 5586 5581 5576 5572 5568 5565 5562 5559 5556 5552 5548 5544 5540 5537 5534 5530 5527 5524 5523 5522 5521 5521 5521 5521 5522 5522 5523 5524 5526 5528 5530 5533 5536 5540 5544 5549 5554
5612 5607 5602 5597 5591 5586 5580 5575 5570 5565 5560 5556 5553 5550 5547 5543 5540 5535 5531 5528 5524 5520 5516 5513 5510 5509 5508 5507 5507 5507 5507 5508 5509 5509 5510 5512 5514 5516 5519 5523 5527 5532 5537
5608 5602 5597 5592 5586 5580 5574 5568 5563 5558 5553 5548 5544 5541 5537 5534 5530 5527 5522 5518 5514 5510 5505 5502 5498 5495 5493 5493 5492 5492 5492 5493 5493 5494 5494 5495 5497 5499 5501 5504 5508 5513 5518
5605 5599 5593 5587 5582 5576 5571 5564 5556 5549 5543 5537 5530 5526 5525 5524 5522 5519 5514 5509 5504 5499 5495 5490 5487 5483 5480 5478 5477 5476 5476 5476 5477 5477 5477 5478 5479 5481 5483 5486 5489 5493 5498
5602 5596 5589 5584 5578 5571 5565 5558 5550 5542 5536 5528 5519 5511 5509 5513 5516 5514 5508 5502 5496 5490 5485 5480 5476 5472 5468 5465 5462 5460 5460 5460 5460 5461 5461 5461 5462 5463 5465 5467 5470 5474 5478
5600 5594 5586 5579 5573 5567 5561 5555 5547 5538 5530 5523 5517 5506 5497 5500 5502 5503 5500 5495 5488 5482 5476 5471 5466 5461 5457 5454 5451 5447 5445 5444 5444 5445 5444 5445 5445 5446 5447 5449 5452 5454 5458
5596 5589 5582 5574 5568 5561 5556 5550 5542 5534 5524 5516 5509 5506 5499 5493 5485 5481 5483 5483 5479 5473 5467 5462 5457 5452 5447 5443 5439 5436 5433 5432 5430 5429 5429 5429 5429 5429 5430 5431 5433 5434 5436
5591 5585 5577 5569 5562 5556 5550 5542 5535 5528 5522 5514 5505 5497 5488 5481 5475 5465 5462 5466 5465 5463 5458 5453 5447 5442 5437 5433 5428 5424 5421 5419 5417 5416 5414 5413 5413 5412 5412 5412 5412 5412 5413
5585 5580 5572 5564 5557 5550 5543 5536 5528 5522 5516 5508 5500 5494 5486 5477 5472 5463 5457 5453 5451 5450 5447 5442 5437 5432 5427 5422 5417 5413 5410 5407 5405 5403 5401 5398 5397 5395 5393 5392 5391 5390 5389
5579 5574 5565 5558 5552 5544 5536 5527 5520 5515 5508 5501 5495 5489 5484 5479 5471 5462 5452 5445 5440 5438 5435 5432 5427 5421 5416 5411 5407 5402 5398 5395 5392 5389 5386 5383 5381 5378 5375 5372 5370 5367 5365
5573 5567 5560 5554 5546 5538 5529 5520 5513 5507 5500 5494 5488 5481 5475 5470 5463 5456 5447 5435 5426 5423 5423 5420 5416 5411 5405 5400 5395 5390 5386 5381 5378 5374 5371 5368 5364 5361 5357 5353 5349 5346 5343
5564 5559 5554 5548 5540 5532 5523 5514 5508 5501 5493 5488 5481 5473 5466 5460 5452 5445 5438 5429 5418 5409 5413 5410 5404 5401 5394 5388 5382 5377 5373 5368 5364 5360 5357 5353 5349 5344 5340 5335 5331 5327 5323
5556 5550 5545 5540 5533 5526 5517 5508 5502 5495 5486 5481 5472 5464 5458 5451 5443 5435 5427 5420 5412 5404 5400 5400 5394 5388 5381 5375 5369 5365 5360 5355 5351 5346 5342 5338 5333 5328 5323 5318 5314 5310 5306
5548 5542 5537 5531 5525 5518 5511 5502 5496 5488 5480 5473 5465 5457 5450 5441 5433 5425 5417 5410 5403 5395 5391 5390 5382 5376 5368 5362 5358 5352 5347 5342 5338 5332 5327 5323 5318 5313 5307 5303 5299 5295 5291
5540 5535 5529 5523 5518 5511 5503 5496 5489 5481 5474 5467 5459 5450 5443 5433 5425 5416 5408 5401 5395 5387 5380 5377 5372 5365 5358 5351 5346 5341 5336 5332 5327 5321 5315 5310 5305 5299 5294 5290 5285 5281 5277
5531 5526 5521 5516 5510 5504 5496 5490 5483 5476 5469 5461 5452 5443 5435 5424 5417 5409 5400 5393 5385 5378 5370 5365 5362 5355 5348 5341 5335 5331 5327 5321 5316 5310 5304 5298 5293 5287 5282 5277 5273 5268 5264
5521 5516 5511 5507 5502 5495 5488 5482 5475 5468 5462 5454 5446 5437 5428 5418 5410 5400 5391 5383 5375 5367 5360 5354 5350 5345 5339 5332 5324 5321 5318 5311 5305 5298 5292 5286 5281 5276 5271 5265 5261 5256 5252
5510 5505 5500 5497 5491 5485 5479 5471 5466 5460 5453 5445 5438 5430 5421 5411 5401 5391 5382 5374 5365 5358 5351 5344 5340 5334 5330 5322 5316 5310 5306 5302 5297 5286 5281 5277 5269 5266 5261 5254 5249 5245 5241
5497 5493 5489 5486 5482 5477 5473 5467 5459 5451 5444 5437 5430 5421 5412 5403 5394 5386 5378 5369 5359 5350 5343 5336 5331 5326 5323 5314 5307 5300 5294 5289 5289 5281 5269 5270 5259 5256 5252 5246 5241 5237 5234
5485 5481 5478 5474 5472 5468 5463 5458 5453 5445 5436 5429 5421 5412 5404 5396 5386 5376 5370 5364 5358 5350 5342 5331 5325 5321 5315 5307 5297 5291 5284 5278 5277 5269 5257 5262 5254 5249 5245 5239 5234 5231 5228
5475 5472 5469 5465 5461 5458 5453 5448 5443 5437 5431 5423 5414 5405 5395 5387 5378 5368 5360 5353 5348 5342 5335 5328 5321 5315 5306 5298 5288 5281 5275 5271 5270 5261 5246 5246 5248 5242 5240 5233 5227 5224 5223
5467 5464 5460 5456 5453 5450 5444 5439 5433 5426 5421 5415 5406 5397 5388 5379 5371 5362 5354 5347 5340 5334 5327 5321 5315 5308 5300 5292 5283 5275 5269 5262 5263 5258 5241 5232 5235 5233 5233 5229 5224 5220 5219
5457 5454 5451 5447 5443 5439 5434 5429 5423 5416 5411 5405 5397 5390 5383 5374 5365 5358 5350 5342 5335 5328 5319 5312 5306 5300 5293 5285 5277 5268 5258 5251 5249 5248 5238 5226 5224 5217 5225 5229 5221 5217 5215